SKW3693 KSLC-KBUR

Flight info

Callsign SKW3693
Flight time 1h 24m
Altitude 34000
Route ARCHZ1 WINEN EEVUN Q73 GUNTR Q96 PURSE JANNY5
Aircraft E75L/M-SDE3GILORVW/S

Departure

Time 2026-05-07 23:07
Airport Salt Lake City International Airport (KSLC)

Arrival

Time 2026-05-08 00:32
Airport Hollywood Burbank/Bob Hope Airport (KBUR)
Time Latitude Longitude Altitude Speed Heading
2026-05-07 22:51 40.78662 -111.98146 4229 ft 0 kts 175°
2026-05-07 22:55 40.78669 -111.98147 4229 ft 4 kts 176°
2026-05-07 22:55 40.78696 -111.98147 4229 ft 4 kts 185°
2026-05-07 22:56 40.78722 -111.98139 4229 ft 4 kts 202°
2026-05-07 22:56 40.78737 -111.98128 4229 ft 1 kts 220°
2026-05-07 22:58 40.78735 -111.98129 4229 ft 1 kts 226°
2026-05-07 22:58 40.78728 -111.98165 4229 ft 8 kts 263°
2026-05-07 22:58 40.78722 -111.98256 4229 ft 11 kts 265°
2026-05-07 22:58 40.78719 -111.98297 4229 ft 3 kts 265°
2026-05-07 22:59 40.78716 -111.98347 4229 ft 8 kts 265°
2026-05-07 22:59 40.78710 -111.98441 4229 ft 12 kts 265°
2026-05-07 22:59 40.78704 -111.98557 4229 ft 13 kts 266°
2026-05-07 22:59 40.78696 -111.98678 4229 ft 14 kts 265°
2026-05-07 23:00 40.78688 -111.98804 4229 ft 14 kts 262°
2026-05-07 23:00 40.78675 -111.98933 4229 ft 15 kts 263°
2026-05-07 23:00 40.78664 -111.99069 4229 ft 15 kts 266°
2026-05-07 23:00 40.78658 -111.99211 4229 ft 16 kts 266°
2026-05-07 23:01 40.78649 -111.99355 4229 ft 16 kts 265°
2026-05-07 23:01 40.78593 -111.99453 4229 ft 15 kts 182°
2026-05-07 23:01 40.78488 -111.99445 4229 ft 15 kts 175°
2026-05-07 23:01 40.78377 -111.99432 4229 ft 17 kts 175°
2026-05-07 23:02 40.78259 -111.99419 4228 ft 18 kts 175°
2026-05-07 23:02 40.78134 -111.99413 4228 ft 18 kts 186°
2026-05-07 23:02 40.78006 -111.99431 4228 ft 19 kts 182°
2026-05-07 23:02 40.77875 -111.99426 4228 ft 19 kts 176°
2026-05-07 23:03 40.77743 -111.99413 4229 ft 19 kts 175°
2026-05-07 23:03 40.77622 -111.99401 4230 ft 16 kts 175°
2026-05-07 23:03 40.77536 -111.99412 4229 ft 0 kts 226°
2026-05-07 23:05 40.77530 -111.99423 4229 ft 3 kts 240°
2026-05-07 23:05 40.77523 -111.99470 4230 ft 7 kts 272°
2026-05-07 23:06 40.77538 -111.99536 4231 ft 8 kts 317°
2026-05-07 23:06 40.77615 -111.99559 4231 ft 20 kts 355°
2026-05-07 23:06 40.78005 -111.99609 4227 ft 92 kts 354°
2026-05-07 23:06 40.78864 -111.99713 4231 ft 155 kts 355°
2026-05-07 23:07 40.80049 -111.99840 4653 ft 177 kts 354°
2026-05-07 23:07 40.81203 -112.00242 5736 ft 171 kts 326°
2026-05-07 23:07 40.81921 -112.01546 6226 ft 190 kts 290°
2026-05-07 23:07 40.82316 -112.03287 6682 ft 212 kts 290°
2026-05-07 23:08 40.82781 -112.05200 7258 ft 226 kts 290°
2026-05-07 23:08 40.82951 -112.07418 7593 ft 265 kts 264°
2026-05-07 23:08 40.82354 -112.09852 8134 ft 290 kts 248°
2026-05-07 23:08 40.81431 -112.12248 9033 ft 295 kts 245°
2026-05-07 23:09 40.80479 -112.14674 9939 ft 299 kts 247°
2026-05-07 23:09 40.79543 -112.17177 10437 ft 317 kts 248°
2026-05-07 23:09 40.78509 -112.19875 10803 ft 339 kts 246°
2026-05-07 23:09 40.77393 -112.22653 11548 ft 345 kts 245°
2026-05-07 23:10 40.76621 -112.24543 12185 ft 347 kts 244°
2026-05-07 23:10 40.75119 -112.27011 13130 ft 357 kts 221°
2026-05-07 23:10 40.72837 -112.28466 14128 ft 368 kts 195°
2026-05-07 23:10 40.70322 -112.29014 14986 ft 375 kts 189°
2026-05-07 23:11 40.67708 -112.29451 15815 ft 382 kts 188°
2026-05-07 23:11 40.65046 -112.29885 16612 ft 389 kts 188°
2026-05-07 23:11 40.62333 -112.30318 17385 ft 396 kts 188°
2026-05-07 23:11 40.59573 -112.30738 18127 ft 402 kts 188°
2026-05-07 23:12 40.56770 -112.31155 18811 ft 408 kts 190°
2026-05-07 23:12 40.54001 -112.31972 19501 ft 410 kts 198°
2026-05-07 23:12 40.51269 -112.33106 20210 ft 414 kts 200°
2026-05-07 23:12 40.48515 -112.34303 20895 ft 419 kts 200°
2026-05-07 23:13 40.45728 -112.35491 21540 ft 424 kts 200°
2026-05-07 23:13 40.42895 -112.36669 22148 ft 429 kts 199°
2026-05-07 23:13 40.40036 -112.37842 22734 ft 433 kts 199°
2026-05-07 23:13 40.37143 -112.39027 23302 ft 438 kts 199°
2026-05-07 23:14 40.34224 -112.40221 23814 ft 442 kts 199°
2026-05-07 23:14 40.31276 -112.41427 24302 ft 445 kts 199°
2026-05-07 23:14 40.28308 -112.42640 24791 ft 449 kts 199°
2026-05-07 23:14 40.25314 -112.43864 25287 ft 452 kts 199°
2026-05-07 23:15 40.22307 -112.45093 25858 ft 453 kts 199°
2026-05-07 23:15 40.19293 -112.46327 26370 ft 455 kts 200°
2026-05-07 23:15 40.16377 -112.47927 26861 ft 454 kts 210°
2026-05-07 23:15 40.13607 -112.49869 27457 ft 451 kts 213°
2026-05-07 23:16 40.10867 -112.51873 28065 ft 451 kts 213°
2026-05-07 23:16 40.08125 -112.53856 28659 ft 450 kts 212°
2026-05-07 23:16 40.05375 -112.55811 29259 ft 449 kts 212°
2026-05-07 23:16 40.02622 -112.57747 29846 ft 449 kts 212°
2026-05-07 23:17 39.99875 -112.59673 30345 ft 448 kts 212°
2026-05-07 23:17 39.97132 -112.61595 30853 ft 447 kts 212°
2026-05-07 23:17 39.94401 -112.63506 31342 ft 446 kts 212°
2026-05-07 23:17 39.91680 -112.65408 31849 ft 444 kts 212°
2026-05-07 23:18 39.88990 -112.67288 32285 ft 444 kts 212°
2026-05-07 23:18 39.86239 -112.69211 32765 ft 441 kts 212°
2026-05-07 23:18 39.83537 -112.71099 33200 ft 441 kts 212°
2026-05-07 23:18 39.80835 -112.72986 33627 ft 440 kts 212°
2026-05-07 23:19 39.78183 -112.74834 34101 ft 437 kts 212°
2026-05-07 23:19 39.72664 -112.78685 34044 ft 457 kts 212°
2026-05-07 23:19 39.69823 -112.80665 33916 ft 469 kts 212°
2026-05-07 23:20 39.66824 -112.82426 33974 ft 478 kts 203°
2026-05-07 23:20 39.60447 -112.85040 33934 ft 486 kts 199°
2026-05-07 23:21 39.53964 -112.87540 33949 ft 486 kts 199°
2026-05-07 23:21 39.47499 -112.90104 33941 ft 485 kts 199°
2026-05-07 23:22 39.41037 -112.92674 33936 ft 485 kts 199°
2026-05-07 23:22 39.34589 -112.95229 33920 ft 485 kts 199°
2026-05-07 23:23 39.28136 -112.97781 33929 ft 485 kts 199°
2026-05-07 23:23 39.21692 -113.00324 33927 ft 484 kts 199°
2026-05-07 23:24 39.15241 -113.02865 33922 ft 484 kts 199°
2026-05-07 23:24 39.08816 -113.05392 33923 ft 484 kts 199°
2026-05-07 23:25 39.02368 -113.07923 33918 ft 484 kts 199°
2026-05-07 23:25 38.95973 -113.10427 33922 ft 484 kts 199°
2026-05-07 23:26 38.89493 -113.12961 33918 ft 484 kts 199°
2026-05-07 23:26 38.83097 -113.15456 33930 ft 483 kts 199°
2026-05-07 23:27 38.73446 -113.19213 33931 ft 483 kts 199°
2026-05-07 23:27 38.67012 -113.21712 33955 ft 483 kts 198°
2026-05-07 23:28 38.60576 -113.24206 33971 ft 483 kts 198°
2026-05-07 23:28 38.54147 -113.26695 33997 ft 482 kts 198°
2026-05-07 23:29 38.47801 -113.29142 34019 ft 476 kts 199°
2026-05-07 23:29 38.41478 -113.31582 33995 ft 474 kts 199°
2026-05-07 23:30 38.35161 -113.34014 33978 ft 474 kts 199°
2026-05-07 23:30 38.28839 -113.36442 33948 ft 475 kts 199°
2026-05-07 23:31 38.22515 -113.38866 33930 ft 475 kts 199°
2026-05-07 23:31 38.16194 -113.41286 33927 ft 474 kts 199°
2026-05-07 23:32 38.09878 -113.43698 33920 ft 474 kts 199°
2026-05-07 23:32 38.03567 -113.46103 33921 ft 473 kts 199°
2026-05-07 23:33 37.97255 -113.48504 33923 ft 473 kts 198°
2026-05-07 23:33 37.90893 -113.50649 33938 ft 475 kts 193°
2026-05-07 23:34 37.84400 -113.52205 33913 ft 474 kts 192°
2026-05-07 23:34 37.77908 -113.53744 33934 ft 474 kts 192°
2026-05-07 23:35 37.71428 -113.55318 33926 ft 474 kts 192°
2026-05-07 23:35 37.64985 -113.56882 33934 ft 474 kts 192°
2026-05-07 23:36 37.58502 -113.58453 33928 ft 474 kts 192°
2026-05-07 23:36 37.52027 -113.60017 33927 ft 474 kts 192°
2026-05-07 23:37 37.45541 -113.61582 33921 ft 475 kts 192°
2026-05-07 23:37 37.39011 -113.63155 33914 ft 475 kts 192°
2026-05-07 23:38 37.34397 -113.64264 33928 ft 476 kts 192°
2026-05-07 23:38 37.27921 -113.65818 33927 ft 476 kts 192°
2026-05-07 23:39 37.21448 -113.67367 33946 ft 476 kts 192°
2026-05-07 23:39 37.14980 -113.68915 33941 ft 477 kts 192°
2026-05-07 23:40 37.08456 -113.70472 33951 ft 477 kts 191°
2026-05-07 23:40 37.02011 -113.72607 33969 ft 477 kts 201°
2026-05-07 23:41 36.95830 -113.75610 33917 ft 476 kts 202°
2026-05-07 23:41 36.89651 -113.78606 33925 ft 476 kts 202°
2026-05-07 23:42 36.83513 -113.81543 33914 ft 475 kts 202°
2026-05-07 23:42 36.77335 -113.84488 33904 ft 475 kts 202°
2026-05-07 23:43 36.71161 -113.87427 33903 ft 474 kts 201°
2026-05-07 23:43 36.64998 -113.90353 33910 ft 475 kts 202°
2026-05-07 23:44 36.58953 -113.93659 33886 ft 475 kts 206°
2026-05-07 23:44 36.52945 -113.97082 33885 ft 475 kts 205°
2026-05-07 23:45 36.46936 -114.00401 33880 ft 475 kts 205°
2026-05-07 23:45 36.41051 -114.04083 33892 ft 474 kts 219°
2026-05-07 23:46 36.38679 -114.06892 33889 ft 471 kts 230°
2026-05-07 23:46 36.36540 -114.09966 33897 ft 471 kts 232°
2026-05-07 23:46 36.32389 -114.16103 33858 ft 470 kts 232°
2026-05-07 23:47 36.28069 -114.22334 33848 ft 471 kts 231°
2026-05-07 23:47 36.23785 -114.28466 33852 ft 471 kts 231°
2026-05-07 23:48 36.19499 -114.34594 33843 ft 471 kts 231°
2026-05-07 23:48 36.15236 -114.40676 33842 ft 470 kts 231°
2026-05-07 23:49 36.10948 -114.46783 33843 ft 471 kts 231°
2026-05-07 23:49 36.06630 -114.52864 33862 ft 471 kts 230°
2026-05-07 23:50 36.02283 -114.58907 33876 ft 471 kts 230°
2026-05-07 23:50 35.97935 -114.64961 33892 ft 470 kts 230°
2026-05-07 23:51 35.93587 -114.71010 33901 ft 471 kts 230°
2026-05-07 23:51 35.89298 -114.76965 33917 ft 471 kts 230°
2026-05-07 23:52 35.86905 -114.80282 33916 ft 471 kts 230°
2026-05-07 23:52 35.83714 -114.84702 33919 ft 471 kts 230°
2026-05-07 23:53 35.79352 -114.90728 33925 ft 471 kts 230°
2026-05-07 23:53 35.74984 -114.96743 33923 ft 471 kts 230°
2026-05-07 23:54 35.70614 -115.02751 33935 ft 472 kts 230°
2026-05-07 23:54 35.66234 -115.08762 33951 ft 472 kts 230°
2026-05-07 23:55 35.61856 -115.14761 33949 ft 471 kts 230°
2026-05-07 23:55 35.57481 -115.20745 33948 ft 471 kts 230°
2026-05-07 23:56 35.53086 -115.26709 33942 ft 471 kts 229°
2026-05-07 23:56 35.49425 -115.31661 33939 ft 471 kts 229°
2026-05-07 23:57 35.45020 -115.37617 33946 ft 471 kts 229°
2026-05-07 23:57 35.40615 -115.43561 33939 ft 471 kts 229°
2026-05-07 23:58 35.36205 -115.49504 33942 ft 471 kts 229°
2026-05-07 23:58 35.31794 -115.55439 33942 ft 471 kts 229°
2026-05-07 23:59 35.27373 -115.61374 33921 ft 472 kts 229°
2026-05-07 23:59 35.22950 -115.67304 33901 ft 472 kts 229°
2026-05-08 00:00 35.20753 -115.70245 33440 ft 463 kts 229°
2026-05-08 00:00 35.18614 -115.73103 33067 ft 450 kts 229°
2026-05-08 00:00 35.16512 -115.75914 32399 ft 447 kts 229°
2026-05-08 00:00 35.14421 -115.78706 31775 ft 443 kts 229°
2026-05-08 00:01 35.12434 -115.81544 31218 ft 436 kts 237°
2026-05-08 00:01 35.10765 -115.84610 30590 ft 431 kts 239°
2026-05-08 00:01 35.09203 -115.87706 30034 ft 427 kts 240°
2026-05-08 00:01 35.07663 -115.90815 29461 ft 428 kts 240°
2026-05-08 00:02 35.06106 -115.93938 28866 ft 436 kts 240°
2026-05-08 00:02 35.04507 -115.97107 28307 ft 440 kts 240°
2026-05-08 00:02 35.02888 -116.00291 27705 ft 442 kts 240°
2026-05-08 00:02 35.01267 -116.03471 27132 ft 442 kts 240°
2026-05-08 00:03 34.99641 -116.06660 26545 ft 443 kts 240°
2026-05-08 00:03 34.98011 -116.09853 25951 ft 444 kts 240°
2026-05-08 00:03 34.96379 -116.13051 25366 ft 444 kts 240°
2026-05-08 00:03 34.94744 -116.16248 24774 ft 444 kts 240°
2026-05-08 00:04 34.93115 -116.19433 24193 ft 440 kts 240°
2026-05-08 00:04 34.91598 -116.22612 23907 ft 430 kts 245°
2026-05-08 00:04 34.90280 -116.25892 23642 ft 431 kts 246°
2026-05-08 00:04 34.89011 -116.29195 23605 ft 431 kts 247°
2026-05-08 00:05 34.87742 -116.32509 23529 ft 433 kts 247°
2026-05-08 00:05 34.86463 -116.35823 23415 ft 432 kts 247°
2026-05-08 00:05 34.85181 -116.39125 23354 ft 431 kts 246°
2026-05-08 00:05 34.83899 -116.42423 23217 ft 431 kts 246°
2026-05-08 00:06 34.82618 -116.45714 23162 ft 430 kts 246°
2026-05-08 00:06 34.81339 -116.49000 23067 ft 429 kts 246°
2026-05-08 00:06 34.80073 -116.52243 22906 ft 431 kts 246°
2026-05-08 00:06 34.78892 -116.55560 22839 ft 426 kts 255°
2026-05-08 00:07 34.78316 -116.59068 22644 ft 422 kts 264°
2026-05-08 00:07 34.77981 -116.62606 22386 ft 420 kts 266°
2026-05-08 00:07 34.77694 -116.66133 22203 ft 418 kts 266°
2026-05-08 00:07 34.77391 -116.69651 21955 ft 417 kts 266°
2026-05-08 00:08 34.77062 -116.73130 21935 ft 415 kts 265°
2026-05-08 00:08 34.76720 -116.76629 21951 ft 417 kts 265°
2026-05-08 00:08 34.76376 -116.80125 21944 ft 417 kts 265°
2026-05-08 00:08 34.76031 -116.83620 21936 ft 417 kts 265°
2026-05-08 00:09 34.75686 -116.87132 21827 ft 417 kts 265°
2026-05-08 00:09 34.75337 -116.90621 21734 ft 417 kts 265°
2026-05-08 00:09 34.74982 -116.94124 21523 ft 415 kts 265°
2026-05-08 00:09 34.74630 -116.97596 21351 ft 414 kts 265°
2026-05-08 00:10 34.74277 -117.01064 21187 ft 412 kts 265°
2026-05-08 00:10 34.73926 -117.04514 20987 ft 412 kts 265°
2026-05-08 00:10 34.73574 -117.07971 20836 ft 411 kts 265°
2026-05-08 00:10 34.73223 -117.11415 20687 ft 409 kts 265°
2026-05-08 00:11 34.72871 -117.14839 20518 ft 409 kts 265°
2026-05-08 00:11 34.72518 -117.18258 20384 ft 407 kts 265°
2026-05-08 00:11 34.72165 -117.21683 20196 ft 407 kts 265°
2026-05-08 00:11 34.71813 -117.25087 20062 ft 406 kts 265°
2026-05-08 00:12 34.71461 -117.28488 19888 ft 405 kts 265°
2026-05-08 00:12 34.71108 -117.31875 19727 ft 405 kts 264°
2026-05-08 00:12 34.70755 -117.35264 19584 ft 403 kts 264°
2026-05-08 00:12 34.70401 -117.38650 19379 ft 404 kts 264°
2026-05-08 00:13 34.70047 -117.42022 19253 ft 402 kts 264°
2026-05-08 00:13 34.69691 -117.45399 19032 ft 402 kts 264°
2026-05-08 00:13 34.69335 -117.48764 18823 ft 401 kts 264°
2026-05-08 00:13 34.68992 -117.52000 18585 ft 401 kts 264°
2026-05-08 00:14 34.68622 -117.55471 18305 ft 398 kts 264°
2026-05-08 00:14 34.68266 -117.58803 18029 ft 398 kts 264°
2026-05-08 00:14 34.67909 -117.62130 17684 ft 397 kts 264°
2026-05-08 00:14 34.67556 -117.65446 17254 ft 394 kts 264°
2026-05-08 00:15 34.67209 -117.68739 16727 ft 392 kts 264°
2026-05-08 00:15 34.66869 -117.71961 16180 ft 387 kts 264°
2026-05-08 00:15 34.66522 -117.75224 15670 ft 382 kts 264°
2026-05-08 00:15 34.66184 -117.78409 15194 ft 378 kts 264°
2026-05-08 00:16 34.65848 -117.81559 14700 ft 374 kts 263°
2026-05-08 00:16 34.65516 -117.84655 14235 ft 365 kts 263°
2026-05-08 00:16 34.65194 -117.87646 13965 ft 352 kts 263°
2026-05-08 00:16 34.64877 -117.90563 13664 ft 341 kts 263°
2026-05-08 00:17 34.64574 -117.93315 13540 ft 326 kts 263°
2026-05-08 00:17 34.64282 -117.95981 13430 ft 313 kts 263°
2026-05-08 00:17 34.63998 -117.98583 13292 ft 311 kts 263°
2026-05-08 00:17 34.63712 -118.01193 13125 ft 313 kts 263°
2026-05-08 00:18 34.63423 -118.03808 12969 ft 313 kts 263°
2026-05-08 00:18 34.63134 -118.06435 12646 ft 314 kts 263°
2026-05-08 00:18 34.62732 -118.09022 12357 ft 309 kts 256°
2026-05-08 00:18 34.62132 -118.11521 11969 ft 308 kts 253°
2026-05-08 00:19 34.61492 -118.13992 11525 ft 306 kts 254°
2026-05-08 00:19 34.60887 -118.16454 11133 ft 302 kts 255°
2026-05-08 00:19 34.60323 -118.18905 10709 ft 299 kts 256°
2026-05-08 00:19 34.59792 -118.21327 10336 ft 296 kts 257°
2026-05-08 00:20 34.59272 -118.23709 9917 ft 293 kts 257°
2026-05-08 00:20 34.58746 -118.26081 9547 ft 289 kts 257°
2026-05-08 00:20 34.58227 -118.28419 9142 ft 285 kts 257°
2026-05-08 00:20 34.57718 -118.30722 8790 ft 281 kts 257°
2026-05-08 00:21 34.57210 -118.32994 8402 ft 278 kts 257°
2026-05-08 00:21 34.56711 -118.35234 8206 ft 271 kts 257°
2026-05-08 00:21 34.56222 -118.37447 8098 ft 273 kts 257°
2026-05-08 00:21 34.55726 -118.39685 7968 ft 272 kts 257°
2026-05-08 00:22 34.55175 -118.41889 7986 ft 277 kts 249°
2026-05-08 00:22 34.54066 -118.43804 8004 ft 284 kts 225°
2026-05-08 00:22 34.52863 -118.44922 8002 ft 285 kts 218°
2026-05-08 00:22 34.51199 -118.46251 7967 ft 286 kts 215°
2026-05-08 00:23 34.49515 -118.47537 7948 ft 288 kts 214°
2026-05-08 00:23 34.47817 -118.48855 7761 ft 289 kts 216°
2026-05-08 00:23 34.47445 -118.49149 7738 ft 288 kts 216°
2026-05-08 00:23 34.46087 -118.50213 7615 ft 286 kts 215°
2026-05-08 00:24 34.44407 -118.51505 7382 ft 287 kts 216°
2026-05-08 00:24 34.44256 -118.51622 7348 ft 287 kts 215°
2026-05-08 00:24 34.43211 -118.52433 7137 ft 291 kts 215°
2026-05-08 00:24 34.41518 -118.53747 6812 ft 286 kts 215°
2026-05-08 00:25 34.39859 -118.55030 6533 ft 280 kts 214°
2026-05-08 00:25 34.38228 -118.56292 6269 ft 275 kts 215°
2026-05-08 00:25 34.36644 -118.57502 6402 ft 271 kts 211°
2026-05-08 00:25 34.35644 -118.57997 6362 ft 283 kts 196°
2026-05-08 00:26 34.34240 -118.58091 6187 ft 290 kts 174°
2026-05-08 00:26 34.32289 -118.57653 5916 ft 280 kts 173°
2026-05-08 00:26 34.30431 -118.57271 5664 ft 265 kts 174°
2026-05-08 00:26 34.28656 -118.57021 5426 ft 249 kts 179°
2026-05-08 00:27 34.26971 -118.56903 5191 ft 237 kts 181°
2026-05-08 00:27 34.25351 -118.56832 4967 ft 228 kts 181°
2026-05-08 00:27 34.23809 -118.56709 4695 ft 218 kts 173°
2026-05-08 00:27 34.22396 -118.56171 4417 ft 217 kts 157°
2026-05-08 00:28 34.21122 -118.55095 3753 ft 229 kts 136°
2026-05-08 00:28 34.20277 -118.53536 3407 ft 214 kts 114°
2026-05-08 00:28 34.19937 -118.51880 3132 ft 196 kts 95°
2026-05-08 00:28 34.19903 -118.50314 2862 ft 177 kts 90°
2026-05-08 00:29 34.19920 -118.48894 2582 ft 167 kts 89°
2026-05-08 00:29 34.19934 -118.47555 2404 ft 151 kts 90°
2026-05-08 00:29 34.19931 -118.46315 2330 ft 147 kts 91°
2026-05-08 00:29 34.19913 -118.45065 2329 ft 150 kts 92°
2026-05-08 00:30 34.19887 -118.43778 2187 ft 153 kts 92°
2026-05-08 00:30 34.19868 -118.42515 2030 ft 148 kts 92°
2026-05-08 00:30 34.19858 -118.41297 1886 ft 147 kts 91°
2026-05-08 00:30 34.19855 -118.40026 1534 ft 150 kts 94°
2026-05-08 00:31 34.19823 -118.38766 1219 ft 154 kts 97°
2026-05-08 00:31 34.19800 -118.37476 885 ft 153 kts 95°
2026-05-08 00:31 34.19786 -118.36239 722 ft 136 kts 95°
2026-05-08 00:31 34.19767 -118.35295 711 ft 82 kts 93°
2026-05-08 00:32 34.19750 -118.34967 699 ft 5 kts 137°